[[{"header":{"parameterUnit":"m.s-1","parameterCategory":2,"la1":30.2992,"la2":30.254,"lo1":-89.0895,"lo2":-89.0443,"dy":0.0025,"dx":0.0025,"nx":19,"ny":19,"refTime":"2026-03-08T03:00:00:Z","depth":"0","parameterNumber":2,"parameterNumberName":"U-component_of_CURRENTS"},"data":[0,0,0,-0.1752,-0.1753,-0.1807,-0.1807,-0.1822,-0.1823,0,0,0,0,0,0,0,0,0,0,0,-0.1727,-0.1728,-0.1752,-0.1753,-0.1807,-0.1807,-0.1822,-0.1823,0,0,0,0,0,0,0,0,0,0,0,-0.1727,-0.1727,-0.1728,-0.1754,-0.1807,-0.1807,-0.1822,-0.1793,0,0,0,0,0,0,0,0,0,0,-0.1747,-0.1726,-0.1727,-0.1728,-0.1754,-0.1807,-0.1807,-0.1792,-0.1795,-0.1786,0,-0.1798,0,-0.1816,-0.1823,-0.1823,0,0,0,-0.1746,-0.1724,-0.175,-0.1728,-0.1755,-0.1807,-0.1781,-0.1794,-0.1797,-0.1789,-0.1798,-0.1799,-0.1816,-0.1823,-0.1823,-0.1846,-0.1846,0,0,-0.1743,-0.1724,-0.1748,-0.1752,-0.1773,-0.1779,-0.1782,-0.1797,-0.1793,-0.1798,-0.18,-0.1816,-0.1823,-0.1823,-0.1846,-0.1846,0,0,0,-0.1739,-0.1722,-0.1748,-0.175,-0.1768,-0.1781,-0.1785,-0.1792,-0.1805,-0.1801,-0.1817,-0.1823,-0.1823,-0.1846,-0.1846,-0.1864,0,0,0,-0.1737,-0.1721,-0.1747,-0.1734,-0.1768,-0.1786,-0.178,-0.1803,-0.1806,-0.1817,-0.1823,-0.1823,-0.1846,-0.1846,-0.1863,-0.1873,0,0,0,-0.1724,-0.1719,-0.173,-0.1734,-0.1763,-0.1787,-0.18,-0.1805,-0.1816,-0.1823,-0.1823,-0.1846,-0.1846,-0.1862,-0.1871,-0.1889,0,0,0,-0.1697,-0.1713,-0.1729,-0.1746,-0.1762,-0.1801,-0.18,-0.1816,-0.1822,-0.1823,-0.1846,-0.1846,-0.1862,-0.187,-0.1888,-0.189,-0.1895,0,0,-0.1704,-0.1713,-0.1723,-0.174,-0.1773,-0.1793,-0.1825,-0.1828,-0.1826,-0.1835,-0.1836,-0.1863,-0.1871,-0.1889,-0.1916,-0.1921,0,0,0,-0.1716,-0.1723,-0.1736,-0.1758,-0.179,-0.1826,-0.1838,-0.1847,-0.1859,-0.1835,-0.1868,-0.1872,-0.1883,-0.1882,-0.1885,-0.19,-0.1848,-0.1848,-0.1848,-0.1699,-0.1721,-0.1739,-0.1772,-0.18,-0.1844,-0.1869,-0.1884,-0.1873,-0.1883,-0.189,-0.192,-0.1919,-0.1922,-0.1937,-0.1892,-0.1892,-0.1892,-0.1892,-0.1709,-0.1727,-0.1746,-0.1772,-0.1815,-0.1848,-0.1899,-0.1905,-0.1933,-0.1916,-0.1926,-0.1904,-0.1926,-0.1941,-0.1893,-0.1893,-0.1893,-0.1893,-0.1893,-0.1711,-0.1723,-0.1731,-0.1766,-0.1806,-0.1854,-0.1909,-0.1935,-0.1946,-0.1961,-0.1956,-0.1955,-0.1966,-0.1961,-0.1961,-0.1961,-0.1962,-0.1962,-0.1962,-0.1716,-0.1726,-0.1736,-0.1765,-0.1787,-0.1838,-0.1913,-0.1948,-0.1978,-0.1979,-0.1979,-0.1981,-0.1941,-0.1935,-0.1964,-0.1963,-0.1963,-0.1963,-0.1963,-0.1738,-0.1733,-0.1744,-0.1755,-0.1794,-0.1826,-0.191,-0.1981,-0.2014,-0.2025,-0.2023,-0.1992,-0.1988,-0.1984,-0.198,-0.2019,-0.2019,-0.2019,-0.2019,-0.1747,-0.1747,-0.175,-0.1756,-0.1784,-0.1821,-0.1895,-0.1976,-0.2035,-0.2043,-0.2055,-0.204,-0.2037,-0.2034,-0.203,-0.2026,-0.2076,-0.2076,-0.2076,-0.1759,-0.1753,-0.1752,-0.1743,-0.1766,-0.1806,-0.1855,-0.1972,-0.2054,-0.208,-0.2077,-0.2075,-0.2053,-0.2047,-0.2041,-0.2034,-0.2026,0,0]},{"header":{"parameterUnit":"m.s-1","parameterCategory":2,"la1":30.2992,"la2":30.254,"lo1":-89.0895,"lo2":-89.0443,"dy":0.0025,"dx":0.0025,"nx":19,"ny":19,"refTime":"2026-03-08T03:00:00:Z","depth":"0","parameterNumber":3,"parameterNumberName":"V-component_of_CURRENTS"},"data":[0,0,0,-0.0739,-0.0737,-0.0623,-0.0622,-0.0471,-0.0469,0,0,0,0,0,0,0,0,0,0,0,-0.0788,-0.0787,-0.0739,-0.0737,-0.0623,-0.0622,-0.0471,-0.0469,0,0,0,0,0,0,0,0,0,0,0,-0.0788,-0.0787,-0.0787,-0.0736,-0.0623,-0.0622,-0.0471,-0.0557,0,0,0,0,0,0,0,0,0,0,-0.0668,-0.0721,-0.0787,-0.0787,-0.0736,-0.0623,-0.0622,-0.0561,-0.0552,-0.0523,0,-0.0514,0,-0.0486,-0.046,-0.0459,0,0,0,-0.0731,-0.0729,-0.0692,-0.0787,-0.0735,-0.0623,-0.0672,-0.0556,-0.0545,-0.051,-0.0511,-0.0505,-0.0483,-0.0459,-0.0458,-0.0356,-0.0356,0,0,-0.0737,-0.0768,-0.07,-0.0686,-0.0715,-0.0676,-0.0669,-0.0549,-0.0546,-0.0511,-0.0502,-0.0481,-0.0458,-0.0457,-0.0356,-0.0356,0,0,0,-0.0759,-0.0773,-0.0739,-0.0693,-0.0671,-0.0673,-0.0665,-0.0552,-0.0539,-0.05,-0.0479,-0.0457,-0.0455,-0.0356,-0.0356,-0.042,0,0,0,-0.0762,-0.0785,-0.0742,-0.0759,-0.0674,-0.0611,-0.067,-0.0548,-0.0533,-0.048,-0.0457,-0.0454,-0.0356,-0.0356,-0.0419,-0.0452,0,0,0,-0.0791,-0.0788,-0.0777,-0.0761,-0.0712,-0.0613,-0.0593,-0.0544,-0.052,-0.0459,-0.0453,-0.0356,-0.0356,-0.0417,-0.0449,-0.0447,0,0,0,-0.0822,-0.0818,-0.0778,-0.0765,-0.0714,-0.0655,-0.0593,-0.054,-0.0494,-0.0456,-0.0356,-0.0356,-0.0417,-0.0447,-0.0446,-0.0558,-0.0574,0,0,-0.0835,-0.0821,-0.0812,-0.0773,-0.0739,-0.0669,-0.0626,-0.0539,-0.0481,-0.0394,-0.0391,-0.0419,-0.0449,-0.0447,-0.0554,-0.0571,0,0,0,-0.0827,-0.0824,-0.0806,-0.0775,-0.072,-0.0674,-0.0587,-0.0541,-0.0464,-0.0452,-0.04,-0.0416,-0.0413,-0.0477,-0.0489,-0.0358,-0.0356,-0.0356,-0.0356,-0.0897,-0.0856,-0.0844,-0.0791,-0.0755,-0.0668,-0.0624,-0.0544,-0.0485,-0.0462,-0.0454,-0.0478,-0.0547,-0.0558,-0.042,-0.0433,-0.0434,-0.0434,-0.0434,-0.0928,-0.0925,-0.0874,-0.0848,-0.0794,-0.0753,-0.0647,-0.06,-0.0525,-0.0485,-0.0479,-0.0524,-0.0576,-0.0424,-0.0438,-0.0437,-0.0437,-0.0436,-0.0436,-0.0986,-0.0979,-0.0952,-0.0915,-0.0883,-0.0806,-0.0775,-0.0682,-0.0589,-0.0579,-0.0614,-0.0614,-0.0492,-0.0567,-0.0567,-0.0567,-0.0568,-0.0568,-0.0568,-0.1064,-0.1032,-0.1029,-0.0982,-0.0975,-0.0944,-0.0845,-0.0803,-0.074,-0.0691,-0.0691,-0.049,-0.0518,-0.0525,-0.057,-0.057,-0.0569,-0.0569,-0.0569,-0.1136,-0.1114,-0.1114,-0.1108,-0.1084,-0.1121,-0.102,-0.0977,-0.0902,-0.0895,-0.0656,-0.0737,-0.0722,-0.0713,-0.0723,-0.0817,-0.0817,-0.0817,-0.0817,-0.1193,-0.1178,-0.1188,-0.1195,-0.1204,-0.12,-0.1292,-0.1252,-0.0985,-0.0856,-0.0679,-0.0661,-0.0657,-0.0633,-0.0625,-0.0631,-0.0699,-0.0698,-0.0697,-0.1237,-0.123,-0.1259,-0.1244,-0.1257,-0.1317,-0.1472,-0.1525,-0.1084,-0.067,-0.0467,-0.0473,-0.0419,-0.0423,-0.0363,-0.0363,-0.0365,0,0]}],[{"header":{"parameterUnit":"m.s-1","parameterCategory":2,"la1":30.2992,"la2":30.254,"lo1":-89.0895,"lo2":-89.0443,"dy":0.0025,"dx":0.0025,"nx":19,"ny":19,"refTime":"2026-03-08T03:00:00:Z","depth":"2","parameterNumber":2,"parameterNumberName":"U-component_of_CURRENTS"},"data":[0,0,0,-0.0955,-0.0956,-0.0961,-0.0961,-0.0948,-0.0948,0,0,0,0,0,0,0,0,0,0,0,-0.0957,-0.0958,-0.0955,-0.0956,-0.0961,-0.0961,-0.0948,-0.0948,0,0,0,0,0,0,0,0,0,0,0,-0.0957,-0.0958,-0.0959,-0.0956,-0.0961,-0.0961,-0.0948,-0.0944,0,0,0,0,0,0,0,0,0,0,-0.0939,-0.0938,-0.0958,-0.0959,-0.0957,-0.0961,-0.0961,-0.0944,-0.0944,-0.0946,0,-0.0967,0,-0.0965,-0.0949,-0.0949,0,0,0,-0.0935,-0.0938,-0.0957,-0.0959,-0.0957,-0.0962,-0.0953,-0.0944,-0.0944,-0.0947,-0.0967,-0.0967,-0.0965,-0.0949,-0.0949,-0.0988,-0.0988,0,0,-0.0935,-0.0935,-0.0957,-0.0958,-0.0985,-0.0953,-0.0954,-0.0944,-0.0945,-0.0967,-0.0966,-0.0965,-0.0949,-0.0949,-0.0987,-0.0988,0,0,0,-0.0948,-0.0935,-0.0954,-0.0959,-0.0966,-0.0954,-0.0954,-0.0945,-0.0958,-0.0966,-0.0965,-0.0949,-0.0949,-0.0987,-0.0988,-0.0994,0,0,0,-0.0947,-0.0945,-0.0954,-0.0951,-0.0967,-0.0955,-0.0955,-0.0958,-0.0957,-0.0965,-0.0949,-0.0949,-0.0987,-0.0987,-0.0993,-0.1016,0,0,0,-0.0952,-0.0944,-0.0957,-0.0951,-0.0964,-0.0956,-0.0965,-0.0957,-0.0957,-0.0949,-0.0949,-0.0986,-0.0987,-0.0992,-0.1014,-0.1092,0,0,0,-0.0934,-0.0934,-0.0957,-0.0934,-0.0965,-0.0935,-0.0965,-0.0937,-0.0925,-0.0949,-0.0987,-0.0988,-0.0992,-0.1013,-0.109,-0.115,-0.1165,0,0,-0.0916,-0.0932,-0.091,-0.093,-0.0899,-0.0931,-0.0922,-0.0928,-0.0946,-0.0984,-0.0985,-0.0993,-0.1014,-0.1092,-0.12,-0.1214,0,0,0,-0.0888,-0.0886,-0.0872,-0.0865,-0.0857,-0.0903,-0.0904,-0.0939,-0.0986,-0.0951,-0.1009,-0.1023,-0.1072,-0.1103,-0.1114,-0.0992,-0.0992,-0.0992,-0.0991,-0.0892,-0.0867,-0.0839,-0.0832,-0.0836,-0.0878,-0.0924,-0.0989,-0.0972,-0.1016,-0.1039,-0.1118,-0.115,-0.116,-0.104,-0.104,-0.1041,-0.1041,-0.1041,-0.086,-0.0843,-0.0843,-0.0812,-0.0869,-0.0886,-0.0984,-0.1012,-0.111,-0.1078,-0.1124,-0.1121,-0.1173,-0.1041,-0.1041,-0.1041,-0.1041,-0.1041,-0.1041,-0.087,-0.0859,-0.0842,-0.0825,-0.0871,-0.0918,-0.1046,-0.1092,-0.1139,-0.118,-0.1247,-0.1247,-0.1146,-0.1204,-0.1204,-0.1205,-0.1205,-0.1205,-0.1205,-0.0888,-0.0868,-0.0852,-0.0838,-0.0859,-0.0942,-0.1082,-0.1184,-0.1281,-0.1288,-0.1289,-0.1175,-0.117,-0.1158,-0.1212,-0.1211,-0.121,-0.121,-0.1209,-0.0849,-0.0871,-0.0841,-0.0849,-0.0904,-0.1046,-0.1171,-0.1388,-0.1466,-0.152,-0.1372,-0.1366,-0.1386,-0.1377,-0.1371,-0.1478,-0.1478,-0.1478,-0.1478,-0.0844,-0.0844,-0.0835,-0.0861,-0.0955,-0.11,-0.1399,-0.1549,-0.1572,-0.1488,-0.1487,-0.143,-0.142,-0.1438,-0.1427,-0.1421,-0.1541,-0.1541,-0.154,-0.0797,-0.0816,-0.0813,-0.0857,-0.0966,-0.1206,-0.1505,-0.153,-0.1345,-0.1536,-0.143,-0.1496,-0.1406,-0.1393,-0.1413,-0.1399,-0.1386,0,0]},{"header":{"parameterUnit":"m.s-1","parameterCategory":2,"la1":30.2992,"la2":30.254,"lo1":-89.0895,"lo2":-89.0443,"dy":0.0025,"dx":0.0025,"nx":19,"ny":19,"refTime":"2026-03-08T03:00:00:Z","depth":"2","parameterNumber":3,"parameterNumberName":"V-component_of_CURRENTS"},"data":[0,0,0,0.0318,0.0319,0.0365,0.0365,0.0347,0.0347,0,0,0,0,0,0,0,0,0,0,0,0.0289,0.0289,0.0318,0.0319,0.0365,0.0365,0.0348,0.0347,0,0,0,0,0,0,0,0,0,0,0,0.0289,0.0289,0.0289,0.032,0.0364,0.0365,0.0348,0.0331,0,0,0,0,0,0,0,0,0,0,0.0297,0.028,0.0289,0.0289,0.032,0.0364,0.0365,0.0331,0.0332,0.0307,0,0.0308,0,0.0333,0.0345,0.0345,0,0,0,0.0316,0.0279,0.0295,0.0289,0.032,0.0364,0.0343,0.0332,0.0333,0.0308,0.0308,0.0309,0.0333,0.0344,0.0344,0.0262,0.0261,0,0,0.0313,0.0293,0.0295,0.0296,0.0323,0.0342,0.0345,0.0334,0.0326,0.0308,0.0309,0.0332,0.0344,0.0344,0.0263,0.0262,0,0,0,0.0309,0.0291,0.0309,0.0296,0.0313,0.0343,0.0346,0.0327,0.0334,0.0309,0.0332,0.0344,0.0343,0.0263,0.0262,0.0211,0,0,0,0.0307,0.0289,0.0308,0.0296,0.0314,0.0331,0.0339,0.0334,0.0335,0.0332,0.0344,0.0343,0.0264,0.0263,0.0214,0.0185,0,0,0,0.0289,0.0287,0.0291,0.0294,0.0318,0.0332,0.0339,0.0335,0.0348,0.0344,0.0343,0.0264,0.0263,0.0217,0.019,0.0158,0,0,0,0.0269,0.0283,0.029,0.0304,0.0318,0.0312,0.034,0.034,0.0334,0.0344,0.0264,0.0262,0.0217,0.0193,0.0161,0.0104,0.0087,0,0,0.0282,0.0283,0.0293,0.0302,0.0294,0.0306,0.0265,0.0279,0.03,0.0263,0.0262,0.0213,0.019,0.0159,0.002,0.0005,0,0,0,0.0295,0.0296,0.0295,0.0291,0.0284,0.0234,0.0245,0.0239,0.0224,0.0292,0.0197,0.0184,0.0166,0.0137,0.0125,0.0255,0.0256,0.0256,0.0256,0.0266,0.0275,0.0259,0.0247,0.0218,0.0181,0.0148,0.0132,0.0164,0.0148,0.0131,0.0055,0.0022,0.0013,0.0122,0.0122,0.0121,0.0121,0.0121,0.0263,0.0247,0.0213,0.0206,0.0133,0.0082,0.003,0.0045,0.0012,0.0056,0.0042,0.007,-0.0003,0.0117,0.0117,0.0118,0.0119,0.0119,0.0119,0.0241,0.0228,0.0225,0.0169,0.0072,0.0012,-0.0083,-0.007,-0.0038,-0.0057,-0.0069,-0.0068,0.0033,-0.0053,-0.0053,-0.0053,-0.0054,-0.0054,-0.0054,0.0212,0.0205,0.018,0.012,0.0032,-0.0067,-0.0141,-0.0168,-0.0166,-0.0141,-0.0141,-0.0003,0.0002,0.0022,-0.0058,-0.0058,-0.0057,-0.0057,-0.0056,0.0184,0.0201,0.0159,0.0092,-0.0111,-0.029,-0.0302,-0.0355,-0.0339,-0.0343,-0.0191,-0.0187,-0.0175,-0.0165,-0.015,-0.027,-0.027,-0.027,-0.027,0.0161,0.0171,0.0096,-0.0046,-0.0249,-0.0416,-0.0556,-0.0399,-0.0261,-0.0101,-0.0106,-0.0059,-0.0057,-0.0033,-0.0026,-0.0005,-0.0087,-0.0086,-0.0085,0.0125,0.0127,0.0039,-0.0078,-0.0352,-0.0573,-0.0696,-0.0414,-0.0022,-0.0064,0.0076,-0.0287,-0.0235,-0.0224,-0.0198,-0.0183,-0.0154,0,0]}],[{"header":{"parameterUnit":"m.s-1","parameterCategory":2,"la1":30.2992,"la2":30.254,"lo1":-89.0895,"lo2":-89.0443,"dy":0.0025,"dx":0.0025,"nx":19,"ny":19,"refTime":"2026-03-08T03:00:00:Z","depth":"4","parameterNumber":2,"parameterNumberName":"U-component_of_CURRENTS"},"data":[0,0,0,-0.068,-0.0682,-0.0808,-0.0809,-0.0988,-0.0989,0,0,0,0,0,0,0,0,0,0,0,-0.0638,-0.0639,-0.068,-0.0682,-0.0808,-0.0809,-0.0988,-0.0989,0,0,0,0,0,0,0,0,0,0,0,-0.0638,-0.0638,-0.0639,-0.0682,-0.0808,-0.0809,-0.0987,-0.0893,0,0,0,0,0,0,0,0,0,0,-0.0771,-0.0726,-0.0638,-0.0639,-0.0683,-0.0808,-0.0809,-0.0889,-0.0899,-0.0928,0,-0.0934,0,-0.0955,-0.0999,-0.1,0,0,0,-0.0706,-0.0718,-0.0742,-0.0639,-0.0684,-0.0807,-0.0758,-0.0895,-0.0906,-0.0942,-0.0937,-0.0944,-0.0958,-0.1,-0.1001,-0.1156,-0.1156,0,0,-0.0699,-0.0677,-0.0733,-0.0748,-0.07,-0.0754,-0.0762,-0.0902,-0.0913,-0.0938,-0.0948,-0.0961,-0.1001,-0.1003,-0.1155,-0.1156,0,0,0,-0.0663,-0.0672,-0.0694,-0.0741,-0.0757,-0.0757,-0.0766,-0.0907,-0.0911,-0.095,-0.0963,-0.1002,-0.1004,-0.1155,-0.1155,-0.1204,0,0,0,-0.066,-0.0649,-0.069,-0.0681,-0.0753,-0.0832,-0.0768,-0.0902,-0.0918,-0.0962,-0.1002,-0.1006,-0.1154,-0.1155,-0.1201,-0.1184,0,0,0,-0.0635,-0.0647,-0.0654,-0.0679,-0.0721,-0.083,-0.0844,-0.0906,-0.0925,-0.1,-0.1006,-0.1153,-0.1155,-0.1199,-0.1181,-0.1181,0,0,0,-0.062,-0.062,-0.0653,-0.0681,-0.0719,-0.0817,-0.0843,-0.0942,-0.101,-0.1003,-0.1154,-0.1155,-0.1198,-0.1179,-0.1179,-0.0956,0,0,0,-0.0607,-0.0618,-0.0639,-0.0672,-0.0736,-0.0802,-0.0897,-0.0997,-0.1037,-0.1112,-0.1116,-0.1202,-0.1181,-0.118,-0.1037,0,0,0,0,-0.0629,-0.0649,-0.0677,-0.0727,-0.0796,-0.0872,-0.0969,-0.1026,-0.1136,-0.1076,-0.1216,-0.12,-0.1198,-0.1066,-0.1162,-0.1162,-0.1161,-0.1161,-0.1161,-0.0593,-0.0645,-0.0686,-0.0756,-0.0821,-0.0947,-0.1026,-0.1118,-0.1165,-0.1223,-0.1252,-0.1295,-0.116,-0.1285,-0.1285,-0.1285,-0.1285,-0.1285,-0.1286,-0.0591,-0.0619,-0.0696,-0.0778,-0.0861,-0.0976,-0.1089,-0.1158,-0.1269,-0.1293,-0.1291,-0.1141,-0.1291,-0.129,-0.1289,-0.1288,-0.1288,-0.1288,-0.1287,-0.0575,-0.0587,-0.0675,-0.0781,-0.0893,-0.1009,-0.106,-0.1201,-0.1287,-0.1326,-0.1179,-0.1309,-0.1289,-0.1344,-0.1344,-0.1344,-0.1344,-0.1344,-0.1344,-0.0516,-0.058,-0.0664,-0.0787,-0.0839,-0.0946,-0.1069,-0.108,-0.1197,-0.1178,-0.134,-0.1313,-0.1311,-0.1291,-0.1343,-0.1343,-0.1343,-0.1343,-0.1343,-0.0496,-0.0551,-0.0625,-0.0682,-0.0757,-0.0788,-0.0892,-0.0915,-0.0928,-0.0924,-0.1089,-0.1102,-0.1048,-0.1052,-0.1021,-0.0995,-0.0992,-0.0989,0,-0.0474,-0.0506,-0.0564,-0.0558,-0.0566,-0.0646,-0.0584,-0.0643,-0.079,-0.0808,-0.0936,-0.1124,-0.1132,-0.1072,-0.1071,-0.1033,0,0,0,-0.0465,-0.0476,-0.0476,-0.0486,-0.0445,-0.0487,-0.0581,-0.0572,-0.0805,-0.0699,-0.092,-0.0938,-0.1045,-0.1341,-0.1288,-0.1286,-0.1251,0,0]},{"header":{"parameterUnit":"m.s-1","parameterCategory":2,"la1":30.2992,"la2":30.254,"lo1":-89.0895,"lo2":-89.0443,"dy":0.0025,"dx":0.0025,"nx":19,"ny":19,"refTime":"2026-03-08T03:00:00:Z","depth":"4","parameterNumber":3,"parameterNumberName":"V-component_of_CURRENTS"},"data":[0,0,0,-0.0147,-0.0148,-0.017,-0.017,-0.0131,-0.0131,0,0,0,0,0,0,0,0,0,0,0,-0.0136,-0.0137,-0.0147,-0.0148,-0.017,-0.017,-0.0131,-0.0131,0,0,0,0,0,0,0,0,0,0,0,-0.0136,-0.0136,-0.0137,-0.0148,-0.017,-0.017,-0.0131,-0.0129,0,0,0,0,0,0,0,0,0,0,-0.0114,-0.0114,-0.0136,-0.0137,-0.0149,-0.017,-0.017,-0.0129,-0.0129,-0.0106,0,-0.0118,0,-0.0129,-0.0128,-0.0128,0,0,0,-0.0136,-0.0115,-0.0127,-0.0137,-0.0149,-0.017,-0.0157,-0.0129,-0.0129,-0.0105,-0.0117,-0.0117,-0.0128,-0.0127,-0.0127,-0.0147,-0.0148,0,0,-0.0135,-0.013,-0.0128,-0.0128,-0.0165,-0.0156,-0.0158,-0.013,-0.0127,-0.0117,-0.0116,-0.0127,-0.0127,-0.0127,-0.0147,-0.0147,0,0,0,-0.014,-0.0129,-0.0143,-0.0128,-0.0141,-0.0157,-0.0159,-0.0129,-0.0136,-0.0116,-0.0127,-0.0127,-0.0126,-0.0146,-0.0147,-0.0219,0,0,0,-0.0138,-0.0132,-0.0143,-0.0138,-0.0142,-0.0144,-0.0158,-0.0138,-0.0135,-0.0127,-0.0127,-0.0126,-0.0145,-0.0146,-0.0216,-0.0277,0,0,0,-0.0133,-0.0131,-0.0139,-0.0138,-0.0154,-0.0145,-0.015,-0.0138,-0.0142,-0.0128,-0.0126,-0.0145,-0.0146,-0.0213,-0.0271,-0.0252,0,0,0,-0.0119,-0.0163,-0.0139,-0.0187,-0.0154,-0.0203,-0.015,-0.0169,-0.0164,-0.0127,-0.0145,-0.0147,-0.0212,-0.0267,-0.0249,-0.0159,0,0,0,-0.0175,-0.0169,-0.02,-0.018,-0.0239,-0.0198,-0.0256,-0.022,-0.0173,-0.0146,-0.0147,-0.0217,-0.0271,-0.0252,-0.0239,0,0,0,0,-0.0219,-0.0236,-0.025,-0.0274,-0.0291,-0.0311,-0.0279,-0.0265,-0.0242,-0.0179,-0.0224,-0.0256,-0.0241,-0.0181,-0.0153,-0.0153,-0.0153,-0.0153,-0.0153,-0.0274,-0.0287,-0.0335,-0.0352,-0.0377,-0.0387,-0.0397,-0.0368,-0.0306,-0.0309,-0.0319,-0.0367,-0.0309,-0.0307,-0.0307,-0.0308,-0.0308,-0.0308,-0.0308,-0.0339,-0.0361,-0.0383,-0.0441,-0.0465,-0.0509,-0.0502,-0.0471,-0.045,-0.0404,-0.0383,-0.0269,-0.0316,-0.0314,-0.0313,-0.0312,-0.0312,-0.0311,-0.0311,-0.0347,-0.0363,-0.0406,-0.0486,-0.0556,-0.0585,-0.0617,-0.0605,-0.0526,-0.0528,-0.0395,-0.0408,-0.0394,-0.0482,-0.0483,-0.0483,-0.0483,-0.0483,-0.0483,-0.0334,-0.0376,-0.0449,-0.0531,-0.0588,-0.0657,-0.0686,-0.0651,-0.0592,-0.0491,-0.0534,-0.0425,-0.0419,-0.0403,-0.0487,-0.0486,-0.0486,-0.0485,-0.0485,-0.0341,-0.0369,-0.0464,-0.0531,-0.0652,-0.0682,-0.0713,-0.062,-0.0567,-0.0473,-0.044,-0.0441,-0.0399,-0.0393,-0.0374,-0.0452,-0.0452,-0.0451,0,-0.0339,-0.0361,-0.0476,-0.0565,-0.0648,-0.0686,-0.0604,-0.0568,-0.0489,-0.0474,-0.0557,-0.0527,-0.0524,-0.0482,-0.0475,-0.0456,0,0,0,-0.0349,-0.0373,-0.0448,-0.0545,-0.0632,-0.0588,-0.0588,-0.0536,-0.0505,-0.0418,-0.0429,-0.0435,-0.048,-0.0496,-0.0433,-0.0426,-0.0396,0,0]}]]